Time,TemperatureF,DewpointF,PressureIn,WindDirection,WindDirectionDegrees,WindSpeedMPH,WindSpeedGustMPH,Humidity,HourlyPrecipIn,Conditions,Clouds,dailyrainin,SoftwareType,DateUTC
2013-02-01 00:01:00,49.0,23.0,-100.00,WNW,293,1.0,2.0,36,-99.99,,,-99.99,,2013-02-01 08:01:00,
2013-02-01 00:11:00,49.0,23.0,-100.00,NE,44,1.0,4.0,35,-99.99,,,-99.99,,2013-02-01 08:11:00,
2013-02-01 00:21:00,49.0,22.0,-100.00,NNE,16,2.0,6.0,34,-99.99,,,-99.99,,2013-02-01 08:21:00,
2013-02-01 00:31:00,50.0,22.0,-100.00,NNE,30,6.0,11.0,33,-99.99,,,-99.99,,2013-02-01 08:31:00,
2013-02-01 00:42:00,51.0,22.0,-100.00,NE,35,8.0,11.0,32,-99.99,,,-99.99,,2013-02-01 08:42:00,
2013-02-01 00:52:00,51.0,21.0,-100.00,NE,49,8.0,12.0,31,-99.99,,,-99.99,,2013-02-01 08:52:00,
2013-02-01 01:01:00,52.0,22.0,-100.00,ENE,62,5.0,11.0,30,-99.99,,,-99.99,,2013-02-01 09:01:00,
2013-02-01 01:11:00,51.0,22.0,-100.00,ENE,77,4.0,9.0,32,-99.99,,,-99.99,,2013-02-01 09:11:00,
2013-02-01 01:21:00,50.0,21.0,-100.00,NE,41,2.0,7.0,32,-99.99,,,-99.99,,2013-02-01 09:21:00,
2013-02-01 01:31:00,49.0,21.0,-100.00,North,354,1.0,4.0,33,-99.99,,,-99.99,,2013-02-01 09:31:00,
2013-02-01 01:41:00,50.0,21.0,-100.00,NE,51,2.0,6.0,32,-99.99,,,-99.99,,2013-02-01 09:41:00,
2013-02-01 01:51:00,52.0,20.0,-100.00,NE,49,8.0,12.0,28,-99.99,,,-99.99,,2013-02-01 09:51:00,
2013-02-01 02:01:00,52.0,20.0,-100.00,NE,49,8.0,12.0,28,-99.99,,,-99.99,,2013-02-01 10:01:00,
2013-02-01 02:11:00,52.0,18.0,-100.00,NE,55,9.0,14.0,26,-99.99,,,-99.99,,2013-02-01 10:11:00,
2013-02-01 02:21:00,53.0,18.0,-100.00,ENE,58,9.0,15.0,25,-99.99,,,-99.99,,2013-02-01 10:21:00,
2013-02-01 02:31:00,52.0,18.0,-100.00,NE,56,7.0,13.0,26,-99.99,,,-99.99,,2013-02-01 10:31:00,
2013-02-01 02:42:00,52.0,19.0,-100.00,ENE,60,9.0,14.0,27,-99.99,,,-99.99,,2013-02-01 10:42:00,
2013-02-01 02:52:00,50.0,19.0,-100.00,ENE,64,8.0,11.0,29,-99.99,,,-99.99,,2013-02-01 10:52:00,
2013-02-01 03:01:00,50.0,19.0,-100.00,ENE,64,8.0,11.0,29,-99.99,,,-99.99,,2013-02-01 11:01:00,
2013-02-01 03:11:00,52.0,19.0,-100.00,NE,54,9.0,12.0,27,-99.99,,,-99.99,,2013-02-01 11:11:00,
2013-02-01 03:21:00,52.0,18.0,-100.00,ENE,59,8.0,11.0,26,-99.99,,,-99.99,,2013-02-01 11:21:00,
2013-02-01 03:31:00,52.0,17.0,-100.00,ENE,63,7.0,13.0,25,-99.99,,,-99.99,,2013-02-01 11:31:00,
2013-02-01 03:41:00,52.0,17.0,-100.00,ENE,63,7.0,13.0,25,-99.99,,,-99.99,,2013-02-01 11:41:00,
2013-02-01 03:50:00,51.0,17.0,-100.00,ENE,71,2.0,6.0,26,-99.99,,,-99.99,,2013-02-01 11:50:00,
2013-02-01 03:53:00,52.0,18.0,-100.00,ENE,67,6.0,11.0,26,-99.99,,,-99.99,,2013-02-01 11:53:00,
2013-02-01 04:02:00,51.0,17.0,-100.00,ENE,61,5.0,8.0,26,-99.99,,,-99.99,,2013-02-01 12:02:00,
2013-02-01 04:12:00,51.0,17.0,-100.00,NE,39,4.0,7.0,26,-99.99,,,-99.99,,2013-02-01 12:12:00,
2013-02-01 04:22:00,51.0,17.0,-100.00,ENE,71,2.0,6.0,26,-99.99,,,-99.99,,2013-02-01 12:22:00,
2013-02-01 04:32:00,51.0,17.0,-100.00,ENE,71,2.0,6.0,26,-99.99,,,-99.99,,2013-02-01 12:32:00,
2013-02-01 04:42:00,51.0,17.0,-100.00,ENE,71,2.0,6.0,26,-99.99,,,-99.99,,2013-02-01 12:42:00,
2013-02-01 05:02:00,50.0,18.0,-100.00,East,79,2.0,4.0,28,-99.99,,,-99.99,,2013-02-01 13:02:00,
2013-02-01 05:11:00,50.0,18.0,-100.00,NE,52,4.0,6.0,28,-99.99,,,-99.99,,2013-02-01 13:11:00,
2013-02-01 05:21:00,51.0,18.0,-100.00,NNE,28,2.0,5.0,27,-99.99,,,-99.99,,2013-02-01 13:21:00,
2013-02-01 05:32:00,49.0,16.0,-100.00,NW,309,1.0,3.0,27,-99.99,,,-99.99,,2013-02-01 13:32:00,
2013-02-01 05:42:00,50.0,17.0,-100.00,ESE,111,2.0,3.0,27,-99.99,,,-99.99,,2013-02-01 13:42:00,
2013-02-01 05:52:00,50.0,17.0,-100.00,WSW,252,1.0,3.0,27,-99.99,,,-99.99,,2013-02-01 13:52:00,
2013-02-01 06:02:00,49.0,17.0,-100.00,WNW,287,1.0,4.0,28,-99.99,,,-99.99,,2013-02-01 14:02:00,
2013-02-01 06:11:00,52.0,16.0,-100.00,North,10,6.0,8.0,24,-99.99,,,-99.99,,2013-02-01 14:11:00,
2013-02-01 06:21:00,52.0,17.0,-100.00,NNE,19,5.0,8.0,25,-99.99,,,-99.99,,2013-02-01 14:21:00,
2013-02-01 06:31:00,50.0,17.0,-100.00,NE,35,2.0,6.0,27,-99.99,,,-99.99,,2013-02-01 14:31:00,
2013-02-01 06:42:00,50.0,17.0,-100.00,NNE,12,5.0,8.0,27,-99.99,,,-99.99,,2013-02-01 14:42:00,
2013-02-01 06:52:00,50.0,17.0,-100.00,NE,35,6.0,9.0,27,-99.99,,,-99.99,,2013-02-01 14:52:00,
2013-02-01 07:02:00,51.0,17.0,-100.00,NE,34,8.0,12.0,26,-99.99,,,-99.99,,2013-02-01 15:02:00,
2013-02-01 07:11:00,51.0,17.0,-100.00,NE,42,6.0,10.0,26,-99.99,,,-99.99,,2013-02-01 15:11:00,
2013-02-01 07:21:00,51.0,19.0,-100.00,NE,55,5.0,9.0,28,-99.99,,,-99.99,,2013-02-01 15:21:00,
2013-02-01 07:32:00,50.0,19.0,-100.00,East,82,5.0,7.0,29,-99.99,,,-99.99,,2013-02-01 15:32:00,
2013-02-01 07:42:00,50.0,18.0,-100.00,East,86,2.0,5.0,28,-99.99,,,-99.99,,2013-02-01 15:42:00,
2013-02-01 07:51:00,51.0,18.0,-100.00,ENE,75,4.0,9.0,27,-99.99,,,-99.99,,2013-02-01 15:51:00,
2013-02-01 08:02:00,52.0,19.0,-100.00,East,88,3.0,7.0,27,-99.99,,,-99.99,,2013-02-01 16:02:00,
2013-02-01 08:11:00,53.0,21.0,-100.00,East,101,1.0,2.0,28,-99.99,,,-99.99,,2013-02-01 16:11:00,
2013-02-01 08:32:00,52.0,20.0,-100.00,NW,308,2.0,3.0,28,-99.99,,,-99.99,,2013-02-01 16:32:00,
2013-02-01 08:42:00,53.0,20.0,-100.00,WNW,298,1.0,2.0,27,-99.99,,,-99.99,,2013-02-01 16:42:00,
2013-02-01 08:52:00,56.0,25.0,-100.00,SSE,164,1.0,3.0,30,-99.99,,,-99.99,,2013-02-01 16:52:00,
2013-02-01 09:02:00,56.0,25.0,-100.00,SSE,164,1.0,3.0,30,-99.99,,,-99.99,,2013-02-01 17:02:00,
2013-02-01 09:11:00,56.0,24.0,-100.00,SW,225,1.0,3.0,29,-99.99,,,-99.99,,2013-02-01 17:11:00,
2013-02-01 09:21:00,57.0,24.0,-100.00,ESE,119,2.0,7.0,28,-99.99,,,-99.99,,2013-02-01 17:21:00,
2013-02-01 09:31:00,57.0,23.0,-100.00,ESE,113,3.0,10.0,27,-99.99,,,-99.99,,2013-02-01 17:31:00,
2013-02-01 09:41:00,57.0,22.0,-100.00,NE,45,4.0,9.0,26,-99.99,,,-99.99,,2013-02-01 17:41:00,
2013-02-01 09:52:00,57.0,24.0,-100.00,East,96,5.0,12.0,28,-99.99,,,-99.99,,2013-02-01 17:52:00,
2013-02-01 10:02:00,56.0,22.0,-100.00,ENE,74,10.0,15.0,26,-99.99,,,-99.99,,2013-02-01 18:02:00,
2013-02-01 10:11:00,55.0,21.0,-100.00,ENE,58,9.0,14.0,26,-99.99,,,-99.99,,2013-02-01 18:11:00,
2013-02-01 10:22:00,56.0,22.0,-100.00,NE,54,8.0,12.0,26,-99.99,,,-99.99,,2013-02-01 18:22:00,
2013-02-01 10:31:00,57.0,23.0,-100.00,NNE,25,7.0,12.0,27,-99.99,,,-99.99,,2013-02-01 18:31:00,
2013-02-01 10:42:00,57.0,23.0,-100.00,NNE,25,7.0,12.0,27,-99.99,,,-99.99,,2013-02-01 18:42:00,
2013-02-01 10:52:00,57.0,22.0,-100.00,NNE,27,9.0,13.0,26,-99.99,,,-99.99,,2013-02-01 18:52:00,
2013-02-01 11:02:00,58.0,24.0,-100.00,NNE,23,7.0,12.0,27,-99.99,,,-99.99,,2013-02-01 19:02:00,
2013-02-01 11:11:00,60.0,24.0,-100.00,NE,55,6.0,13.0,25,-99.99,,,-99.99,,2013-02-01 19:11:00,
2013-02-01 11:21:00,59.0,22.0,-100.00,ENE,65,10.0,15.0,24,-99.99,,,-99.99,,2013-02-01 19:21:00,
2013-02-01 11:31:00,60.0,23.0,-100.00,ENE,78,9.0,15.0,24,-99.99,,,-99.99,,2013-02-01 19:31:00,
2013-02-01 11:41:00,61.0,24.0,-100.00,East,91,8.0,12.0,24,-99.99,,,-99.99,,2013-02-01 19:41:00,
2013-02-01 11:51:00,62.0,24.0,-100.00,East,79,5.0,10.0,23,-99.99,,,-99.99,,2013-02-01 19:51:00,
2013-02-01 12:01:00,63.0,24.0,-100.00,SSE,147,4.0,9.0,22,-99.99,,,-99.99,,2013-02-01 20:01:00,
2013-02-01 12:11:00,62.0,25.0,-100.00,NNW,335,6.0,13.0,24,-99.99,,,-99.99,,2013-02-01 20:11:00,
2013-02-01 12:21:00,61.0,25.0,-100.00,NE,36,5.0,12.0,25,-99.99,,,-99.99,,2013-02-01 20:21:00,
2013-02-01 12:31:00,60.0,26.0,-100.00,North,1,9.0,14.0,27,-99.99,,,-99.99,,2013-02-01 20:31:00,
2013-02-01 12:41:00,59.0,26.0,-100.00,NNE,12,10.0,14.0,28,-99.99,,,-99.99,,2013-02-01 20:41:00,
2013-02-01 12:52:00,59.0,26.0,-100.00,NNE,29,7.0,13.0,28,-99.99,,,-99.99,,2013-02-01 20:52:00,
2013-02-01 13:01:00,59.0,25.0,-100.00,NNE,26,8.0,12.0,27,-99.99,,,-99.99,,2013-02-01 21:01:00,
2013-02-01 13:11:00,60.0,26.0,-100.00,NE,34,7.0,13.0,27,-99.99,,,-99.99,,2013-02-01 21:11:00,
2013-02-01 13:21:00,61.0,26.0,-100.00,NE,35,6.0,12.0,26,-99.99,,,-99.99,,2013-02-01 21:21:00,
2013-02-01 13:31:00,60.0,27.0,-100.00,NNE,17,7.0,11.0,28,-99.99,,,-99.99,,2013-02-01 21:31:00,
2013-02-01 13:41:00,60.0,27.0,-100.00,NNE,17,7.0,11.0,28,-99.99,,,-99.99,,2013-02-01 21:41:00,
2013-02-01 13:52:00,60.0,27.0,-100.00,NNE,21,6.0,10.0,28,-99.99,,,-99.99,,2013-02-01 21:52:00,
2013-02-01 14:01:00,60.0,27.0,-100.00,NNE,25,6.0,12.0,28,-99.99,,,-99.99,,2013-02-01 22:01:00,
2013-02-01 14:11:00,60.0,27.0,-100.00,NE,43,5.0,10.0,28,-99.99,,,-99.99,,2013-02-01 22:11:00,
2013-02-01 14:21:00,60.0,27.0,-100.00,NNE,20,5.0,9.0,28,-99.99,,,-99.99,,2013-02-01 22:21:00,
2013-02-01 14:32:00,60.0,28.0,-100.00,NNE,17,5.0,10.0,29,-99.99,,,-99.99,,2013-02-01 22:32:00,
2013-02-01 14:42:00,59.0,28.0,-100.00,NNE,27,7.0,12.0,30,-99.99,,,-99.99,,2013-02-01 22:42:00,
2013-02-01 14:51:00,60.0,28.0,-100.00,NNE,16,5.0,11.0,30,-99.99,,,-99.99,,2013-02-01 22:51:00,
2013-02-01 15:01:00,60.0,28.0,-100.00,NNE,14,5.0,11.0,29,-99.99,,,-99.99,,2013-02-01 23:01:00,
2013-02-01 15:11:00,61.0,28.0,-100.00,North,8,4.0,8.0,28,-99.99,,,-99.99,,2013-02-01 23:11:00,
2013-02-01 15:21:00,61.0,29.0,-100.00,NNW,337,4.0,10.0,29,-99.99,,,-99.99,,2013-02-01 23:21:00,
2013-02-01 15:31:00,61.0,28.0,-100.00,North,355,5.0,10.0,28,-99.99,,,-99.99,,2013-02-01 23:31:00,
2013-02-01 15:41:00,59.0,28.0,-100.00,NNE,12,7.0,11.0,30,-99.99,,,-99.99,,2013-02-01 23:41:00,
2013-02-01 15:52:00,58.0,28.0,-100.00,NNE,12,8.0,12.0,31,-99.99,,,-99.99,,2013-02-01 23:52:00,
2013-02-01 16:01:00,59.0,28.0,-100.00,North,3,6.0,12.0,31,-99.99,,,-99.99,,2013-02-02 00:01:00,
2013-02-01 16:11:00,58.0,28.0,-100.00,NNE,13,8.0,12.0,31,-99.99,,,-99.99,,2013-02-02 00:11:00,
2013-02-01 16:21:00,58.0,28.0,-100.00,North,10,7.0,10.0,32,-99.99,,,-99.99,,2013-02-02 00:21:00,
2013-02-01 16:32:00,57.0,27.0,-100.00,NNE,16,8.0,12.0,32,-99.99,,,-99.99,,2013-02-02 00:32:00,
2013-02-01 16:41:00,57.0,28.0,-100.00,North,9,7.0,10.0,33,-99.99,,,-99.99,,2013-02-02 00:41:00,
2013-02-01 16:52:00,57.0,28.0,-100.00,North,1,7.0,11.0,33,-99.99,,,-99.99,,2013-02-02 00:52:00,
2013-02-01 17:01:00,56.0,27.0,-100.00,North,358,7.0,10.0,33,-99.99,,,-99.99,,2013-02-02 01:01:00,
2013-02-01 17:11:00,55.0,26.0,-100.00,North,3,9.0,12.0,33,-99.99,,,-99.99,,2013-02-02 01:11:00,
2013-02-01 17:21:00,54.0,26.0,-100.00,North,9,10.0,12.0,33,-99.99,,,-99.99,,2013-02-02 01:21:00,
2013-02-01 17:31:00,54.0,24.0,-100.00,NNE,17,10.0,13.0,31,-99.99,,,-99.99,,2013-02-02 01:31:00,
2013-02-01 17:41:00,54.0,25.0,-100.00,NNE,15,9.0,11.0,32,-99.99,,,-99.99,,2013-02-02 01:41:00,
2013-02-01 17:52:00,54.0,25.0,-100.00,NNE,16,9.0,12.0,32,-99.99,,,-99.99,,2013-02-02 01:52:00,
2013-02-01 18:01:00,54.0,25.0,-100.00,NNE,14,9.0,11.0,32,-99.99,,,-99.99,,2013-02-02 02:01:00,
2013-02-01 18:11:00,53.0,24.0,-100.00,NNE,19,9.0,10.0,32,-99.99,,,-99.99,,2013-02-02 02:11:00,
2013-02-01 18:21:00,53.0,24.0,-100.00,NNE,22,7.0,11.0,32,-99.99,,,-99.99,,2013-02-02 02:21:00,
2013-02-01 18:31:00,53.0,25.0,-100.00,NNE,13,5.0,9.0,33,-99.99,,,-99.99,,2013-02-02 02:31:00,
2013-02-01 18:41:00,52.0,25.0,-100.00,North,355,1.0,5.0,35,-99.99,,,-99.99,,2013-02-02 02:41:00,
2013-02-01 18:52:00,51.0,25.0,-100.00,WSW,249,2.0,4.0,36,-99.99,,,-99.99,,2013-02-02 02:52:00,
2013-02-01 19:02:00,51.0,24.0,-100.00,WSW,241,1.0,3.0,35,-99.99,,,-99.99,,2013-02-02 03:02:00,
2013-02-01 19:11:00,51.0,24.0,-100.00,ESE,117,1.0,3.0,34,-99.99,,,-99.99,,2013-02-02 03:11:00,
2013-02-01 19:21:00,53.0,23.0,-100.00,ENE,70,3.0,6.0,31,-99.99,,,-99.99,,2013-02-02 03:21:00,
2013-02-01 19:32:00,54.0,22.0,-100.00,NE,41,4.0,7.0,28,-99.99,,,-99.99,,2013-02-02 03:32:00,
2013-02-01 19:42:00,55.0,20.0,-100.00,NE,53,4.0,7.0,25,-99.99,,,-99.99,,2013-02-02 03:42:00,
2013-02-01 19:51:00,54.0,19.0,-100.00,NE,43,3.0,7.0,25,-99.99,,,-99.99,,2013-02-02 03:51:00,
2013-02-01 20:01:00,54.0,18.0,-100.00,NE,38,3.0,9.0,24,-99.99,,,-99.99,,2013-02-02 04:01:00,
2013-02-01 20:11:00,54.0,18.0,-100.00,NE,36,3.0,6.0,24,-99.99,,,-99.99,,2013-02-02 04:11:00,
2013-02-01 20:21:00,53.0,19.0,-100.00,East,83,1.0,7.0,26,-99.99,,,-99.99,,2013-02-02 04:21:00,
2013-02-01 20:32:00,54.0,17.0,-100.00,ENE,66,3.0,7.0,23,-99.99,,,-99.99,,2013-02-02 04:32:00,
2013-02-01 20:41:00,54.0,17.0,-100.00,ENE,66,3.0,7.0,23,-99.99,,,-99.99,,2013-02-02 04:41:00,
2013-02-01 20:51:00,54.0,17.0,-100.00,ENE,78,3.0,7.0,23,-99.99,,,-99.99,,2013-02-02 04:51:00,
2013-02-01 21:02:00,53.0,18.0,-100.00,SE,124,2.0,7.0,25,-99.99,,,-99.99,,2013-02-02 05:02:00,
2013-02-01 21:11:00,52.0,19.0,-100.00,East,91,1.0,4.0,27,-99.99,,,-99.99,,2013-02-02 05:11:00,
2013-02-01 21:22:00,52.0,18.0,-100.00,WNW,296,1.0,4.0,26,-99.99,,,-99.99,,2013-02-02 05:22:00,
2013-02-01 21:32:00,52.0,19.0,-100.00,WSW,253,1.0,4.0,27,-99.99,,,-99.99,,2013-02-02 05:32:00,
2013-02-01 21:41:00,52.0,19.0,-100.00,WSW,253,1.0,4.0,27,-99.99,,,-99.99,,2013-02-02 05:41:00,
2013-02-01 21:52:00,52.0,18.0,-100.00,ESE,122,1.0,4.0,26,-99.99,,,-99.99,,2013-02-02 05:52:00,
2013-02-01 22:02:00,52.0,18.0,-100.00,ENE,63,1.0,3.0,26,-99.99,,,-99.99,,2013-02-02 06:02:00,
2013-02-01 22:11:00,52.0,16.0,-100.00,East,85,3.0,8.0,24,-99.99,,,-99.99,,2013-02-02 06:11:00,
2013-02-01 22:21:00,52.0,17.0,-100.00,ESE,108,1.0,7.0,25,-99.99,,,-99.99,,2013-02-02 06:21:00,
2013-02-01 22:31:00,53.0,16.0,-100.00,ENE,77,2.0,6.0,23,-99.99,,,-99.99,,2013-02-02 06:31:00,
2013-02-01 22:41:00,53.0,16.0,-100.00,ENE,78,2.0,6.0,23,-99.99,,,-99.99,,2013-02-02 06:41:00,
2013-02-01 22:51:00,53.0,15.0,-100.00,East,79,3.0,8.0,22,-99.99,,,-99.99,,2013-02-02 06:51:00,
2013-02-01 23:01:00,53.0,15.0,-100.00,ENE,69,3.0,9.0,22,-99.99,,,-99.99,,2013-02-02 07:01:00,
2013-02-01 23:11:00,53.0,15.0,-100.00,ENE,59,2.0,5.0,22,-99.99,,,-99.99,,2013-02-02 07:11:00,
2013-02-01 23:21:00,53.0,16.0,-100.00,NE,49,2.0,8.0,23,-99.99,,,-99.99,,2013-02-02 07:21:00,
2013-02-01 23:31:00,53.0,15.0,-100.00,ENE,72,4.0,8.0,22,-99.99,,,-99.99,,2013-02-02 07:31:00,
2013-02-01 23:41:00,54.0,16.0,-100.00,NE,53,3.0,11.0,22,-99.99,,,-99.99,,2013-02-02 07:41:00,
2013-02-01 23:51:00,53.0,18.0,-100.00,SE,125,2.0,8.0,25,-99.99,,,-99.99,,2013-02-02 07:51:00,